Retour au catalogue

SL-8 R/B

ActifPO
NORAD 7477·ROCKET BODY·🇷🇺 Russia

Lancé Oct 18, 1974 depuis Plesetsk Cosmodrome

Loading…

Prochains Passages (prochaines 24 heures)

TLE

FraisSource: Space-Track

Époque: Sep 14, 2026, 10:36 UTC

1 07477U 74079B   26257.44220295 -.00000048  00000-0 -67044-4 0  9991
2 07477  82.9399  66.2193 0034716  59.3760 329.4711 13.74279339602008

Suivez SL-8 R/B en temps réel avec AllMySat

Download on the App Store